This is the latest recevied weather packets stored in our database for station/object WK1F-2. If no packets are shown the sender has not sent any weather packets the latest 10 day(s).
| Time | Temp. | Humidity | Pressure | Rain* | Wind** | Luminosity | Snow |
|---|---|---|---|---|---|---|---|
| 1777502083 | 27.22° C | 63% | 1009.1 hPa | 0 mm | - | - | - |
| 1777501783 | 27.22° C | 62% | 1009 hPa | 0 mm | - | - | - |
| 1777501483 | 27.22° C | 62% | 1009.1 hPa | 0 mm | - | - | - |
| 1777501183 | 27.78° C | 60% | 1009 hPa | 0 mm | - | - | - |
| 1777500883 | 28.33° C | 59% | 1009.1 hPa | 0 mm | - | - | - |
| 1777500583 | 28.33° C | 58% | 1009 hPa | 0 mm | - | - | - |
| 1777500283 | 28.33° C | 57% | 1009.1 hPa | 0 mm | - | - | - |
| 1777499983 | 28.33° C | 56% | 1008.9 hPa | 0 mm | - | - | - |
| 1777499683 | 28.33° C | 56% | 1008.9 hPa | 0 mm | - | - | - |
| 1777499383 | 28.89° C | 57% | 1009 hPa | 0 mm | - | - | - |
| 1777499083 | 28.89° C | 56% | 1009 hPa | 0 mm | - | - | - |
| 1777498783 | 28.89° C | 54% | 1009.2 hPa | 0 mm | - | - | - |
| 1777498483 | 28.89° C | 54% | 1009.1 hPa | 0 mm | - | - | - |
| 1777498183 | 28.89° C | 56% | 1009 hPa | 0 mm | - | - | - |
| 1777497883 | 28.33° C | 56% | 1009.2 hPa | 0 mm | - | - | - |
| 1777497583 | 28.89° C | 56% | 1009.2 hPa | 0 mm | - | - | - |
| 1777497283 | 28.89° C | 54% | 1009.3 hPa | 0 mm | - | - | - |
| 1777496983 | 29.44° C | 55% | 1009.5 hPa | 0 mm | - | - | - |
| 1777496683 | 29.44° C | 56% | 1009.4 hPa | 0 mm | - | - | - |
| 1777496383 | 30° C | 53% | 1009.6 hPa | 0 mm | - | - | - |
| 1777496083 | 30.56° C | 52% | 1009.5 hPa | 0 mm | - | - | - |
| 1777495783 | 30.56° C | 48% | 1009.6 hPa | 0 mm | - | - | - |
| 1777495483 | 30° C | 39% | 1009.6 hPa | 0 mm | - | - | - |
| 1777495183 | 29.44° C | 53% | 1009.8 hPa | 0 mm | - | - | - |
| 1777494883 | 29.44° C | 53% | 1009.8 hPa | 0 mm | - | - | - |
* Rain latest hour (hover to see other rain measurements)
** Current wind speed in m/s (hover to see current wind gust speed)